Simultaneous Nadir Overpasses (SNOs) Predictions

Prediction of SNOs between GOES-14 and NOAA-20 Satellite Orbit:

Table of predicted SNOs for the next 14.0 days since TLE Epoch: 8/8/2020
Index Date Time (GOES-14) GOES-14 Lat,Lon NOAA-20 Lat,Lon Distance(km) Time Diff (sec)
1 08/08/2020 08:05:06 -0.39,-104.40 -1.22,-100.61 432.32 80
2 08/09/2020 20:27:03 0.41,-104.60 0.14,-105.93 151.14 80
3 08/10/2020 20:10:58 0.40,-104.61 1.14,-101.40 366.77 80
4 08/12/2020 08:32:44 -0.43,-104.44 0.07,-106.66 252.75 80
5 08/13/2020 08:11:19 -0.42,-104.44 -0.93,-102.12 264.05 80
6 08/14/2020 20:33:15 0.45,-104.62 -0.21,-107.44 321.49 80
7 08/15/2020 20:17:11 0.44,-104.63 0.85,-102.91 196.07 80
8 08/17/2020 08:38:57 -0.47,-104.47 0.36,-108.17 422.01 80
9 08/18/2020 08:17:31 -0.46,-104.47 -0.64,-103.64 94.44 80
10 08/19/2020 20:39:28 0.48,-104.63 -0.49,-108.95 493.01 80
11 08/20/2020 20:23:22 0.47,-104.63 0.51,-104.42 24.66 80
